Location: Unspecified
(0.0000°N, 0.0000°E)
Time: 05:12:20
(UTC+00:00)

Envisat - Pass Details

Date: 24 May 2019
Orbit: 764 x 766 km, 98.2° (Epoch: 22 May)

Event Time Altitude Azimuth Distance (km) Brightness Sun altitude
Rises 19:26:44 0° 185° (S) 3,230 6.1 -20.9°
Reaches altitude 10° 19:29:14 10° 194° (SSW) 2,302 5.4 -21.5°
Maximum altitude 19:33:46 34° 258° (WSW) 1,250 4.5 -22.6°
Drops below altitude 10° 19:38:18 10° 322° (NW) 2,292 6.3 -23.6°
Sets 19:40:47 0° 331° (NNW) 3,215 7.0 -24.2°
